Location: Newark
(34.0131°N, 4.3314°W)
Time: 08:20:40
(UTC+00:00)

Vanguard 1 - Visible Passes

Search period start: 18 October 2019 00:00
Search period end: 28 October 2019 00:00
Orbit: 653 x 3830 km, 34.2° (Epoch: 17 October)

Date Brightness Start Highest point End Pass type
(mag) Time Alt. Az. Time Alt. Az. Time Alt. Az.
18 Oct 13.9 00:51:21 20° SE 00:51:21 20° SE 00:56:02 10° SE visible
18 Oct 13.3 03:04:06 35° SSW 03:04:06 35° SSW 03:18:10 10° SSE visible
18 Oct 13.8 05:20:40 10° WSW 05:22:14 10° SW 05:23:48 10° SW visible
18 Oct 11.4 19:54:56 10° WSW 20:03:46 83° SSE 20:08:27 50° E visible
18 Oct 12.5 22:15:14 10° W 22:21:08 41° W 22:21:08 41° W visible
19 Oct 13.8 01:11:35 22° SE 01:11:35 22° SE 01:17:07 10° SE visible
19 Oct 13.4 03:24:20 29° SSW 03:24:20 29° SSW 03:37:33 10° S visible
19 Oct 11.2 17:57:05 10° SW 18:03:27 48° SSE 18:14:47 10° ENE visible
19 Oct 11.4 20:15:53 10° W 20:25:05 89° S 20:27:59 64° E visible
19 Oct 12.8 22:36:22 10° W 22:40:40 30° W 22:40:40 30° W visible
20 Oct 13.8 01:31:45 23° SSE 01:31:45 23° SSE 01:37:52 10° SE visible
20 Oct 13.6 03:44:29 22° SSW 03:44:29 22° SSW 03:56:10 10° S visible
20 Oct 11.0 18:17:36 10° SW 18:24:15 61° SSE 18:34:50 14° E visible
20 Oct 11.5 20:36:53 10° W 20:46:29 89° N 20:47:31 80° E visible
20 Oct 13.1 22:57:29 10° W 23:39:05 - ESE 23:00:12 22° W visible
21 Oct 13.8 01:51:49 23° SSE 01:51:49 23° SSE 01:58:14 10° SSE visible
21 Oct 13.8 04:04:33 16° SW 04:04:33 16° SW 04:13:20 10° SSW visible
21 Oct 10.9 18:38:20 10° WSW 18:45:14 74° SSE 18:54:21 21° E visible
21 Oct 11.6 20:57:55 10° W 21:07:02 82° W 21:07:02 82° W visible
21 Oct 13.4 23:18:38 10° WNW 23:59:05 - SE 23:19:44 14° W visible
22 Oct 13.8 02:11:48 21° S 02:11:48 21° S 02:18:08 10° SSE visible
22 Oct 11.0 18:59:09 10° WSW 19:06:20 83° SSE 19:13:53 28° E visible
22 Oct 11.8 21:18:57 10° W 21:26:34 64° W 21:26:34 64° W visible
23 Oct13.700:18:58SE00:18:58SE23:39:15WNWvisible
23 Oct 13.8 02:31:41 19° S 02:31:41 19° S 02:37:28 10° S visible
23 Oct 11.0 19:20:05 10° W 19:27:34 89° S 19:33:25 37° E visible
23 Oct 12.1 21:39:59 10° W 21:46:06 48° W 21:46:06 48° W visible
24 Oct13.900:38:47SE00:38:47SE23:58:48WNWvisible
24 Oct 13.9 02:51:29 15° S 02:51:29 15° S 02:55:55 10° S visible
24 Oct 11.1 19:41:03 10° W 19:48:50 88° N 19:52:58 49° E visible
24 Oct 12.5 22:01:01 10° W 22:05:39 35° W 22:05:39 35° W visible
25 Oct 14.0 03:11:11 11° SSW 03:11:11 11° SSW 03:12:43 10° SSW visible
25 Oct 10.5 17:42:43 10° WSW 17:48:25 73° SSE 17:58:37 10° E visible
25 Oct 11.1 20:02:01 10° W 20:10:08 90° N 20:12:31 64° E visible
25 Oct 12.8 22:22:07 10° W 22:25:13 25° W 22:25:13 25° W visible
26 Oct 10.5 18:03:33 10° WSW 18:09:28 84° SSE 18:19:25 12° E visible
26 Oct 11.2 20:22:59 10° W 20:31:26 86° S 20:32:06 81° SE visible
26 Oct 13.2 22:43:15 10° W 22:44:48 17° W 22:44:48 17° W visible
27 Oct 10.6 18:24:27 10° W 18:30:36 90° N 18:39:01 18° E visible
27 Oct 11.3 20:43:57 10° W 20:51:42 74° WSW 20:51:42 74° WSW visible
